SJV609 PKMJ-NTAA

Flight info

Callsign SJV609
Flight time N/A
Altitude 37000
Route VAVEE R332 BO A578 FU A584 FA B577 TUT G224 TAF
Aircraft A320/M-SDFGHIRW/EB1

Departure

Time 2026-04-26 16:49
Airport Marshall Islands International Airport (PKMJ)

Arrival

Time N/A
Airport Fa'a'ā International Airport (NTAA)
Time Latitude Longitude Altitude Speed Heading
2026-04-26 16:36 7.06826 171.28111 5 ft 0 kts 114°
2026-04-26 16:47 7.06817 171.28131 4 ft 7 kts 114°
2026-04-26 16:47 7.06823 171.28181 6 ft 9 kts 70°
2026-04-26 16:47 7.06792 171.28225 5 ft 10 kts 171°
2026-04-26 16:47 7.06754 171.28217 5 ft 5 kts 246°
2026-04-26 16:48 7.06739 171.28174 4 ft 8 kts 258°
2026-04-26 16:48 7.06736 171.28159 2 ft 4 kts 258°
2026-04-26 16:48 7.06726 171.28115 3 ft 13 kts 257°
2026-04-26 16:48 7.06625 171.27702 2 ft 108 kts 255°
2026-04-26 16:49 7.06381 171.26711 4 ft 179 kts 256°
2026-04-26 16:49 7.06064 171.25432 703 ft 193 kts 256°
2026-04-26 16:49 7.05726 171.24075 1474 ft 211 kts 256°
2026-04-26 16:49 7.05137 171.22657 1946 ft 233 kts 228°
2026-04-26 16:50 7.03719 171.21795 2367 ft 252 kts 188°
2026-04-26 16:50 7.01949 171.21964 2933 ft 263 kts 157°
2026-04-26 16:50 7.00281 171.22752 3809 ft 266 kts 148°
2026-04-26 16:50 6.98654 171.23669 4747 ft 269 kts 148°
2026-04-26 16:51 6.97005 171.24555 5643 ft 273 kts 151°
2026-04-26 16:51 6.95277 171.25386 6505 ft 277 kts 154°
2026-04-26 16:51 6.93495 171.26154 7329 ft 280 kts 156°
2026-04-26 16:51 6.91671 171.26875 8143 ft 284 kts 157°
2026-04-26 16:52 6.89808 171.27573 8949 ft 288 kts 158°
2026-04-26 16:52 6.89170 171.27806 9221 ft 289 kts 158°
2026-04-26 16:52 6.86240 171.28861 10270 ft 299 kts 158°
2026-04-26 16:52 6.84203 171.29592 10482 ft 322 kts 159°
2026-04-26 16:53 6.82020 171.30379 10762 ft 340 kts 159°
2026-04-26 16:53 6.79769 171.31191 11336 ft 346 kts 159°
2026-04-26 16:53 6.77494 171.32012 11971 ft 350 kts 159°
2026-04-26 16:53 6.75191 171.32848 12612 ft 353 kts 159°
2026-04-26 16:54 6.72867 171.33690 13236 ft 357 kts 159°
2026-04-26 16:54 6.70516 171.34542 13821 ft 361 kts 159°
2026-04-26 16:54 6.68135 171.35406 14368 ft 364 kts 158°
2026-04-26 16:54 6.65776 171.36265 14906 ft 367 kts 158°
2026-04-26 16:55 6.63356 171.37144 15448 ft 371 kts 159°
2026-04-26 16:55 6.60920 171.38029 15981 ft 374 kts 159°
2026-04-26 16:55 6.58456 171.38923 16507 ft 378 kts 159°
2026-04-26 16:55 6.55971 171.39821 17030 ft 381 kts 159°
2026-04-26 16:56 6.50932 171.41639 18064 ft 387 kts 159°
2026-04-26 16:56 6.48378 171.42560 18515 ft 390 kts 159°
2026-04-26 16:56 6.45811 171.43483 18969 ft 393 kts 159°
2026-04-26 16:57 6.44104 171.44100 19266 ft 394 kts 159°
2026-04-26 16:57 6.40665 171.45346 19871 ft 397 kts 159°
2026-04-26 16:57 6.36299 171.46926 20619 ft 402 kts 159°
2026-04-26 16:58 6.33658 171.47881 21061 ft 404 kts 159°
2026-04-26 16:58 6.31865 171.48530 21365 ft 406 kts 159°
2026-04-26 16:58 6.25622 171.50796 22355 ft 412 kts 159°
2026-04-26 16:59 6.22915 171.51777 22761 ft 414 kts 159°
2026-04-26 16:59 6.17490 171.53745 23529 ft 419 kts 159°
2026-04-26 17:00 6.11961 171.55737 24192 ft 423 kts 159°
2026-04-26 17:00 6.06386 171.57743 24869 ft 427 kts 159°
2026-04-26 17:00 6.03579 171.58758 25198 ft 429 kts 159°
2026-04-26 17:01 6.00751 171.59781 25528 ft 431 kts 159°
2026-04-26 17:01 5.97925 171.60803 25847 ft 433 kts 159°
2026-04-26 17:01 5.95081 171.61834 26162 ft 435 kts 159°
2026-04-26 17:01 5.92225 171.62867 26475 ft 437 kts 160°
2026-04-26 17:02 5.89355 171.63904 26771 ft 439 kts 160°
2026-04-26 17:02 5.86505 171.64934 27075 ft 441 kts 160°
2026-04-26 17:02 5.83572 171.65996 27378 ft 443 kts 160°
2026-04-26 17:02 5.80666 171.67047 27674 ft 445 kts 160°
2026-04-26 17:03 5.77772 171.68090 27972 ft 448 kts 160°
2026-04-26 17:03 5.74821 171.69151 28281 ft 450 kts 160°
2026-04-26 17:03 5.71868 171.70213 28595 ft 452 kts 160°
2026-04-26 17:03 5.68894 171.71283 28896 ft 454 kts 160°
2026-04-26 17:04 5.65914 171.72356 29199 ft 456 kts 160°
2026-04-26 17:04 5.62919 171.73438 29488 ft 458 kts 159°
2026-04-26 17:04 5.59908 171.74527 29790 ft 461 kts 159°
2026-04-26 17:04 5.56884 171.75622 30063 ft 463 kts 159°
2026-04-26 17:05 5.53846 171.76719 30314 ft 464 kts 159°
2026-04-26 17:05 5.50796 171.77820 30647 ft 464 kts 159°
2026-04-26 17:05 5.47757 171.78916 31055 ft 462 kts 159°
2026-04-26 17:05 5.44766 171.79992 31462 ft 461 kts 159°
2026-04-26 17:06 5.41738 171.81081 31881 ft 459 kts 159°
2026-04-26 17:06 5.38734 171.82163 32294 ft 458 kts 159°
2026-04-26 17:06 5.35739 171.83243 32691 ft 457 kts 159°
2026-04-26 17:06 5.32747 171.84324 33096 ft 456 kts 159°
2026-04-26 17:07 5.29753 171.85405 33514 ft 455 kts 159°
2026-04-26 17:07 5.26809 171.86466 33916 ft 454 kts 159°
2026-04-26 17:07 5.23832 171.87537 34267 ft 454 kts 159°
2026-04-26 17:07 5.20860 171.88610 34635 ft 453 kts 159°
2026-04-26 17:08 5.17890 171.89680 34986 ft 452 kts 160°
2026-04-26 17:08 5.14919 171.90749 35306 ft 452 kts 160°
2026-04-26 17:08 5.11954 171.91817 35612 ft 452 kts 160°
2026-04-26 17:08 5.09021 171.92872 35905 ft 452 kts 160°
2026-04-26 17:09 5.06055 171.93938 36203 ft 453 kts 160°
2026-04-26 17:09 5.04049 171.94658 36405 ft 453 kts 160°
2026-04-26 17:09 5.00116 171.96072 36757 ft 454 kts 160°
2026-04-26 17:09 4.97125 171.97152 36819 ft 460 kts 160°
2026-04-26 17:10 4.90993 171.99360 36822 ft 475 kts 160°
2026-04-26 17:10 4.84679 172.01631 36822 ft 489 kts 160°
2026-04-26 17:11 4.81470 172.02781 37181 ft 487 kts 160°
2026-04-26 17:11 4.78272 172.03927 37296 ft 491 kts 160°
2026-04-26 17:11 4.75054 172.05080 36669 ft 496 kts 160°
2026-04-26 17:11 4.71784 172.06250 37267 ft 484 kts 160°
2026-04-26 17:12 4.65745 172.08423 38255 ft 451 kts 160°
2026-04-26 17:12 4.62802 172.09491 38257 ft 447 kts 160°
2026-04-26 17:13 4.56973 172.11600 37793 ft 452 kts 160°
2026-04-26 17:13 4.53990 172.12678 37268 ft 460 kts 160°
2026-04-26 17:13 4.47808 172.14896 36797 ft 478 kts 160°
2026-04-26 17:14 4.44691 172.16011 36823 ft 473 kts 160°
2026-04-26 17:14 4.35520 172.19309 36817 ft 461 kts 160°
2026-04-26 17:15 4.26438 172.22573 36819 ft 470 kts 160°
2026-04-26 17:16 4.20177 172.24819 36820 ft 485 kts 160°
2026-04-26 17:16 4.16982 172.25968 37070 ft 485 kts 160°
2026-04-26 17:16 4.13834 172.27100 37717 ft 478 kts 160°
2026-04-26 17:16 4.10724 172.28220 38366 ft 470 kts 161°
2026-04-26 17:17 4.07676 172.29317 38925 ft 462 kts 161°
2026-04-26 17:17 4.04678 172.30397 39471 ft 453 kts 161°
2026-04-26 17:17 4.01739 172.31456 40025 ft 445 kts 161°
2026-04-26 17:17 3.98853 172.32497 40608 ft 435 kts 161°
2026-04-26 17:18 3.96039 172.33513 41188 ft 425 kts 161°
2026-04-26 17:18 3.93298 172.34505 41773 ft 414 kts 161°
2026-04-26 17:18 3.90617 172.35475 42358 ft 402 kts 161°
2026-04-26 17:18 3.88027 172.36414 42914 ft 390 kts 161°
2026-04-26 17:19 3.83106 172.38204 43734 ft 370 kts 161°
2026-04-26 17:19 3.80664 172.39092 43516 ft 377 kts 161°
2026-04-26 17:19 3.78163 172.40000 43079 ft 388 kts 161°
2026-04-26 17:20 3.75603 172.40927 42971 ft 391 kts 161°
2026-04-26 17:20 3.73917 172.41538 43170 ft 385 kts 161°
2026-04-26 17:20 3.70604 172.42740 43682 ft 373 kts 161°
2026-04-26 17:20 3.68163 172.43628 43619 ft 375 kts 161°
2026-04-26 17:21 3.65676 172.44530 43245 ft 385 kts 161°
2026-04-26 17:21 3.63135 172.45450 43067 ft 390 kts 161°
2026-04-26 17:21 3.60599 172.46368 43291 ft 383 kts 161°
2026-04-26 17:21 3.58120 172.47267 43635 ft 375 kts 161°
2026-04-26 17:22 3.53194 172.49053 43386 ft 382 kts 161°
2026-04-26 17:22 3.50702 172.49955 43184 ft 388 kts 161°
2026-04-26 17:22 3.48145 172.50880 43321 ft 384 kts 161°
2026-04-26 17:23 3.45657 172.51781 43630 ft 376 kts 161°
2026-04-26 17:23 3.43231 172.52660 43725 ft 374 kts 161°
2026-04-26 17:23 3.40769 172.53553 43514 ft 380 kts 161°
2026-04-26 17:23 3.38228 172.54472 43295 ft 386 kts 161°
2026-04-26 17:24 3.33241 172.56278 43607 ft 377 kts 161°
2026-04-26 17:24 3.30785 172.57167 43731 ft 375 kts 161°
2026-04-26 17:24 3.28322 172.58059 43597 ft 379 kts 161°
2026-04-26 17:25 3.25814 172.58966 43375 ft 384 kts 161°
2026-04-26 17:25 3.23291 172.59878 43362 ft 385 kts 161°
2026-04-26 17:25 3.20789 172.60783 43575 ft 379 kts 161°
2026-04-26 17:25 3.18318 172.61676 43730 ft 375 kts 161°
2026-04-26 17:26 3.13370 172.63464 43464 ft 383 kts 161°
2026-04-26 17:26 3.08367 172.65269 43542 ft 381 kts 160°
2026-04-26 17:27 3.05894 172.66162 43708 ft 377 kts 160°
2026-04-26 17:27 3.03427 172.67052 43700 ft 377 kts 160°
2026-04-26 17:27 3.00943 172.67947 43538 ft 382 kts 160°
2026-04-26 17:27 2.98426 172.68854 43440 ft 384 kts 160°
2026-04-26 17:28 2.93422 172.70655 43691 ft 378 kts 160°
2026-04-26 17:28 2.88462 172.72440 43601 ft 381 kts 160°
2026-04-26 17:29 2.85108 172.73645 43507 ft 383 kts 160°
2026-04-26 17:29 2.80955 172.75136 43692 ft 379 kts 160°
2026-04-26 17:29 2.78479 172.76024 43721 ft 378 kts 160°
2026-04-26 17:30 2.73488 172.77813 43531 ft 383 kts 160°
2026-04-26 17:30 2.68480 172.79606 43690 ft 380 kts 160°
2026-04-26 17:31 2.63514 172.81382 43664 ft 381 kts 160°
2026-04-26 17:31 2.58496 172.83173 43576 ft 383 kts 160°
2026-04-26 17:32 2.53497 172.84955 43721 ft 379 kts 160°
2026-04-26 17:32 2.48532 172.86723 43598 ft 383 kts 161°
2026-04-26 17:33 2.43507 172.88510 43673 ft 381 kts 160°
2026-04-26 17:34 2.36853 172.90872 43633 ft 383 kts 161°
2026-04-26 17:34 2.31810 172.92659 43622 ft 384 kts 161°
2026-04-26 17:35 2.26794 172.94435 43690 ft 382 kts 161°
2026-04-26 17:35 2.21726 172.96228 43593 ft 385 kts 161°
2026-04-26 17:36 2.16704 172.98002 43638 ft 384 kts 161°
2026-04-26 17:36 2.11659 172.99784 43634 ft 385 kts 161°
2026-04-26 17:37 2.06592 173.01572 43614 ft 386 kts 160°
2026-04-26 17:37 2.01544 173.03352 43689 ft 384 kts 161°
2026-04-26 17:38 1.93951 173.06029 43649 ft 386 kts 161°
2026-04-26 17:38 1.88895 173.07811 43702 ft 385 kts 161°
2026-04-26 17:39 1.83838 173.09594 43696 ft 386 kts 161°
2026-04-26 17:39 1.78776 173.11380 43706 ft 386 kts 161°
2026-04-26 17:40 1.74569 173.12865 43736 ft 385 kts 161°
2026-04-26 17:40 1.68637 173.14960 43697 ft 386 kts 161°
2026-04-26 17:41 1.63565 173.16753 43725 ft 386 kts 161°
2026-04-26 17:41 1.58540 173.18530 43733 ft 386 kts 160°
2026-04-26 17:42 1.53471 173.20324 43701 ft 387 kts 160°
2026-04-26 17:42 1.48397 173.22122 43735 ft 386 kts 160°
2026-04-26 17:43 1.43333 173.23917 43726 ft 387 kts 160°
2026-04-26 17:43 1.38252 173.25720 43709 ft 387 kts 160°
2026-04-26 17:44 1.33182 173.27521 43779 ft 386 kts 160°
2026-04-26 17:44 1.28108 173.29324 43746 ft 387 kts 160°
2026-04-26 17:45 1.23017 173.31135 43771 ft 387 kts 160°
2026-04-26 17:45 1.17983 173.32928 43834 ft 386 kts 160°
2026-04-26 17:46 1.12906 173.34737 43813 ft 387 kts 160°
2026-04-26 17:46 1.07821 173.36550 43852 ft 387 kts 160°
2026-04-26 17:47 1.03608 173.38053 43869 ft 387 kts 160°
2026-04-26 17:47 0.97666 173.40175 43852 ft 387 kts 160°
2026-04-26 17:48 0.92587 173.41990 43890 ft 387 kts 160°
2026-04-26 17:48 0.87541 173.43794 43876 ft 388 kts 160°
2026-04-26 17:49 0.82459 173.45613 43883 ft 388 kts 160°
2026-04-26 17:49 0.77349 173.47444 43908 ft 387 kts 160°
2026-04-26 17:50 0.72300 173.49255 43922 ft 387 kts 160°
2026-04-26 17:50 0.67227 173.51075 43935 ft 387 kts 160°
2026-04-26 17:51 0.62141 173.52903 43946 ft 387 kts 160°
2026-04-26 17:51 0.57062 173.54730 43951 ft 387 kts 160°
2026-04-26 17:52 0.51991 173.56555 43960 ft 387 kts 160°
2026-04-26 17:52 0.46944 173.58374 43974 ft 387 kts 160°
2026-04-26 17:53 0.41869 173.60204 43977 ft 387 kts 160°
2026-04-26 17:54 0.34258 173.62952 44004 ft 387 kts 160°
2026-04-26 17:54 0.29186 173.64785 44009 ft 387 kts 160°
2026-04-26 17:55 0.24123 173.66616 44015 ft 388 kts 160°
2026-04-26 17:55 0.19056 173.68451 44023 ft 387 kts 160°
2026-04-26 17:56 0.13977 173.70290 44034 ft 387 kts 160°
2026-04-26 17:57 0.03825 173.73972 44051 ft 387 kts 160°
2026-04-26 17:57 -0.01257 173.75817 44038 ft 388 kts 160°
2026-04-26 17:58 -0.11407 173.79505 44081 ft 387 kts 160°
2026-04-26 17:59 -0.18996 173.82267 44056 ft 388 kts 160°
2026-04-26 17:59 -0.24072 173.84116 44107 ft 387 kts 160°
2026-04-26 18:00 -0.29148 173.85966 44070 ft 389 kts 160°
2026-04-26 18:00 -0.34233 173.87822 44087 ft 388 kts 160°
2026-04-26 18:01 -0.39280 173.89665 44109 ft 388 kts 160°
2026-04-26 18:01 -0.44367 173.91526 44089 ft 389 kts 160°
2026-04-26 18:02 -0.47762 173.92768 44100 ft 389 kts 160°
2026-04-26 18:02 -0.54518 173.95245 44091 ft 389 kts 160°
2026-04-26 18:03 -0.59616 173.97115 44081 ft 390 kts 160°
2026-04-26 18:03 -0.64716 173.98989 44082 ft 390 kts 160°
2026-04-26 18:04 -0.69822 174.00867 44057 ft 391 kts 160°
2026-04-26 18:05 -0.77492 174.03691 44047 ft 392 kts 160°
2026-04-26 18:05 -0.82618 174.05581 44051 ft 392 kts 160°
2026-04-26 18:06 -0.87758 174.07477 44028 ft 393 kts 160°
2026-04-26 18:06 -0.92860 174.09360 44066 ft 393 kts 160°
2026-04-26 18:07 -0.97987 174.11253 44087 ft 392 kts 160°
2026-04-26 18:07 -1.03116 174.13149 44081 ft 393 kts 160°
2026-04-26 18:08 -1.08236 174.15043 44138 ft 392 kts 160°
2026-04-26 18:08 -1.13367 174.16942 44128 ft 392 kts 160°
2026-04-26 18:09 -1.17619 174.18517 44152 ft 392 kts 160°
2026-04-26 18:09 -1.23573 174.20724 44164 ft 392 kts 160°
2026-04-26 18:10 -1.27858 174.22313 44149 ft 393 kts 160°
2026-04-26 18:10 -1.32977 174.24213 44199 ft 392 kts 160°
2026-04-26 18:11 -1.38087 174.26110 44199 ft 392 kts 160°
2026-04-26 18:11 -1.43180 174.28002 44203 ft 392 kts 160°
2026-04-26 18:12 -1.48290 174.29901 44220 ft 392 kts 160°
2026-04-26 18:12 -1.53413 174.31806 44206 ft 393 kts 160°
2026-04-26 18:13 -1.58534 174.33712 44244 ft 392 kts 160°
2026-04-26 18:13 -1.63649 174.35617 44233 ft 392 kts 160°
2026-04-26 18:14 -1.68766 174.37523 44241 ft 392 kts 160°
2026-04-26 18:14 -1.73893 174.39434 44255 ft 392 kts 160°
2026-04-26 18:15 -1.78979 174.41331 44260 ft 392 kts 160°
2026-04-26 18:15 -1.84096 174.43241 44268 ft 392 kts 160°
2026-04-26 18:16 -1.89226 174.45158 44291 ft 392 kts 160°
2026-04-26 18:16 -1.96879 174.48020 44273 ft 393 kts 160°
2026-04-26 18:17 -2.01997 174.49936 44294 ft 393 kts 160°
2026-04-26 18:17 -2.07118 174.51855 44292 ft 393 kts 160°
2026-04-26 18:18 -2.12274 174.53790 44313 ft 393 kts 160°
2026-04-26 18:18 -2.17363 174.55702 44324 ft 393 kts 160°
2026-04-26 18:19 -2.22512 174.57638 44334 ft 393 kts 160°
2026-04-26 18:19 -2.27606 174.59557 44335 ft 393 kts 160°
2026-04-26 18:20 -2.32726 174.61488 44339 ft 393 kts 160°
2026-04-26 18:20 -2.36984 174.63097 44352 ft 393 kts 160°
2026-04-26 18:21 -2.42967 174.65361 44359 ft 393 kts 160°
2026-04-26 18:21 -2.48085 174.67301 44360 ft 393 kts 160°
2026-04-26 18:22 -2.53195 174.69241 44387 ft 393 kts 160°
2026-04-26 18:22 -2.58304 174.71185 44374 ft 393 kts 160°
2026-04-26 18:23 -2.63416 174.73133 44417 ft 392 kts 160°
2026-04-26 18:23 -2.68492 174.75072 44411 ft 393 kts 160°
2026-04-26 18:24 -2.73604 174.77029 44400 ft 393 kts 160°
2026-04-26 18:24 -2.78704 174.78986 44443 ft 392 kts 160°
2026-04-26 18:25 -2.83801 174.80947 44411 ft 393 kts 160°
2026-04-26 18:25 -2.88909 174.82916 44434 ft 393 kts 160°
2026-04-26 18:26 -2.94009 174.84886 44448 ft 392 kts 160°
2026-04-26 18:26 -2.99116 174.86863 44421 ft 393 kts 160°
2026-04-26 18:27 -3.04218 174.88842 44474 ft 392 kts 160°
2026-04-26 18:27 -3.09279 174.90809 44456 ft 393 kts 160°
2026-04-26 18:28 -3.14394 174.92800 44442 ft 394 kts 160°
2026-04-26 18:28 -3.19493 174.94789 44493 ft 392 kts 160°
2026-04-26 18:29 -3.24584 174.96780 44473 ft 393 kts 160°
2026-04-26 18:29 -3.29690 174.98779 44468 ft 393 kts 160°
2026-04-26 18:30 -3.34784 175.00778 44518 ft 392 kts 160°
2026-04-26 18:30 -3.39846 175.02769 44468 ft 394 kts 160°
2026-04-26 18:31 -3.44950 175.04780 44521 ft 393 kts 160°
2026-04-26 18:31 -3.50029 175.06787 44550 ft 392 kts 160°
2026-04-26 18:32 -3.55119 175.08802 44509 ft 394 kts 160°
2026-04-26 18:32 -3.60203 175.10819 44568 ft 392 kts 160°
2026-04-26 18:33 -3.65275 175.12836 44546 ft 393 kts 160°
2026-04-26 18:33 -3.70356 175.14861 44558 ft 393 kts 160°
2026-04-26 18:34 -3.75420 175.16885 44604 ft 391 kts 160°
2026-04-26 18:34 -3.80495 175.18919 44571 ft 393 kts 160°
2026-04-26 18:35 -3.85568 175.20956 44601 ft 392 kts 160°
2026-04-26 18:35 -3.90623 175.22993 44628 ft 391 kts 160°
2026-04-26 18:36 -3.95648 175.25022 44601 ft 392 kts 160°
2026-04-26 18:36 -4.00711 175.27073 44645 ft 391 kts 160°
2026-04-26 18:37 -4.05761 175.29123 44637 ft 391 kts 160°
2026-04-26 18:37 -4.10814 175.31180 44639 ft 391 kts 160°
2026-04-26 18:38 -4.15849 175.33236 44671 ft 391 kts 160°
2026-04-26 18:38 -4.20862 175.35289 44640 ft 392 kts 160°
2026-04-26 18:39 -4.25899 175.37358 44678 ft 391 kts 159°
2026-04-26 18:39 -4.30958 175.39443 44697 ft 390 kts 159°
2026-04-26 18:40 -4.35955 175.41510 44682 ft 391 kts 159°
2026-04-26 18:40 -4.40979 175.43594 44723 ft 390 kts 159°
2026-04-26 18:41 -4.45991 175.45680 44704 ft 391 kts 159°
2026-04-26 18:41 -4.51008 175.47774 44728 ft 390 kts 159°
2026-04-26 18:42 -4.56023 175.49874 44738 ft 390 kts 159°
2026-04-26 18:42 -4.61033 175.51978 44732 ft 390 kts 159°
2026-04-26 18:43 -4.66040 175.54087 44756 ft 390 kts 159°
2026-04-26 18:43 -4.70986 175.56176 44764 ft 389 kts 159°
2026-04-26 18:44 -4.75983 175.58292 44763 ft 390 kts 159°
2026-04-26 18:44 -4.80982 175.60415 44764 ft 390 kts 159°
2026-04-26 18:45 -4.85971 175.62540 44786 ft 389 kts 159°
2026-04-26 18:45 -4.90958 175.64669 44777 ft 389 kts 159°
2026-04-26 18:46 -4.95907 175.66788 44795 ft 389 kts 159°
2026-04-26 18:46 -5.00886 175.68924 44807 ft 389 kts 159°
2026-04-26 18:47 -5.05864 175.71066 44795 ft 389 kts 159°
2026-04-26 18:47 -5.10845 175.73213 44807 ft 389 kts 159°
2026-04-26 18:48 -5.15813 175.75360 44822 ft 389 kts 159°
2026-04-26 18:48 -5.19953 175.77153 44805 ft 390 kts 159°
2026-04-26 18:49 -5.24928 175.79312 44820 ft 389 kts 159°
2026-04-26 18:49 -5.29892 175.81471 44837 ft 389 kts 159°
2026-04-26 18:50 -5.34877 175.83644 44818 ft 389 kts 159°
2026-04-26 18:50 -5.39843 175.85815 44848 ft 389 kts 159°
2026-04-26 18:51 -5.44808 175.87990 44847 ft 389 kts 159°
2026-04-26 18:51 -5.49772 175.90171 44835 ft 389 kts 159°
2026-04-26 18:52 -5.54729 175.92354 44862 ft 389 kts 159°
2026-04-26 18:52 -5.59680 175.94540 44865 ft 389 kts 159°
2026-04-26 18:53 -5.64608 175.96722 44860 ft 389 kts 159°
2026-04-26 18:53 -5.69557 175.98917 44892 ft 388 kts 158°
2026-04-26 18:54 -5.74508 176.01119 44877 ft 389 kts 158°
2026-04-26 18:54 -5.79456 176.03326 44898 ft 388 kts 158°
2026-04-26 18:55 -5.84396 176.05535 44912 ft 388 kts 158°
2026-04-26 18:55 -5.89344 176.07753 44888 ft 389 kts 158°
2026-04-26 18:56 -5.94254 176.09960 44910 ft 389 kts 158°
2026-04-26 18:56 -5.99190 176.12185 44929 ft 388 kts 158°
2026-04-26 18:57 -6.03283 176.14034 44928 ft 388 kts 158°
2026-04-26 18:57 -6.09036 176.16641 44934 ft 388 kts 158°
2026-04-26 18:58 -6.13964 176.18879 44929 ft 389 kts 158°
2026-04-26 18:58 -6.18893 176.21124 44942 ft 388 kts 158°
2026-04-26 18:59 -6.23814 176.23371 44959 ft 388 kts 158°
2026-04-26 18:59 -6.28737 176.25625 44953 ft 388 kts 158°
2026-04-26 19:00 -6.33644 176.27878 44961 ft 388 kts 158°
2026-04-26 19:00 -6.38556 176.30140 44969 ft 388 kts 158°
2026-04-26 19:01 -6.43463 176.32406 44984 ft 388 kts 157°
2026-04-26 19:01 -6.48377 176.34682 44988 ft 388 kts 157°
2026-04-26 19:02 -6.53285 176.36961 44986 ft 388 kts 157°
2026-04-26 19:02 -6.57355 176.38856 45003 ft 388 kts 157°
2026-04-26 19:03 -6.63075 176.41528 45004 ft 388 kts 157°
2026-04-26 19:03 -6.67984 176.43827 45006 ft 388 kts 157°
2026-04-26 19:04 -6.72846 176.46111 45026 ft 388 kts 157°
2026-04-26 19:04 -6.77733 176.48413 45009 ft 388 kts 157°
2026-04-26 19:05 -6.85069 176.51880 45061 ft 387 kts 157°
2026-04-26 19:06 -6.89943 176.54191 45053 ft 388 kts 157°
2026-04-26 19:06 -6.94824 176.56512 45065 ft 387 kts 157°
2026-04-26 19:07 -6.99703 176.58837 45078 ft 387 kts 156°
2026-04-26 19:07 -7.04546 176.61150 45069 ft 388 kts 156°
2026-04-26 19:08 -7.09422 176.63486 45087 ft 387 kts 156°
2026-04-26 19:08 -7.14283 176.65821 45099 ft 387 kts 156°
2026-04-26 19:09 -7.19148 176.68163 45091 ft 387 kts 156°
2026-04-26 19:09 -7.24008 176.70511 45118 ft 387 kts 156°
2026-04-26 19:10 -7.28838 176.72851 45111 ft 387 kts 156°
2026-04-26 19:10 -7.33698 176.75211 45129 ft 387 kts 156°
2026-04-26 19:11 -7.38522 176.77561 45143 ft 387 kts 156°
2026-04-26 19:11 -7.43373 176.79931 45143 ft 387 kts 156°
2026-04-26 19:12 -7.48217 176.82304 45155 ft 387 kts 156°
2026-04-26 19:12 -7.53054 176.84680 45146 ft 387 kts 156°
2026-04-26 19:13 -7.57888 176.87061 45164 ft 387 kts 156°
2026-04-26 19:13 -7.62719 176.89447 45159 ft 387 kts 156°
2026-04-26 19:14 -7.67552 176.91839 45177 ft 387 kts 156°
2026-04-26 19:14 -7.72378 176.94235 45191 ft 386 kts 156°
2026-04-26 19:15 -7.77207 176.96639 45176 ft 387 kts 156°
2026-04-26 19:15 -7.82031 176.99046 45201 ft 386 kts 156°
2026-04-26 19:16 -7.86857 177.01460 45201 ft 387 kts 156°
2026-04-26 19:16 -7.91685 177.03881 45186 ft 387 kts 156°
2026-04-26 19:17 -7.96481 177.06292 45209 ft 387 kts 156°
2026-04-26 19:17 -8.01304 177.08724 45204 ft 387 kts 156°
2026-04-26 19:18 -8.06129 177.11162 45198 ft 388 kts 156°
2026-04-26 19:18 -8.10944 177.13602 45231 ft 387 kts 156°
2026-04-26 19:19 -8.15761 177.16050 45223 ft 387 kts 156°
2026-04-26 19:19 -8.20573 177.18500 45234 ft 387 kts 156°
2026-04-26 19:20 -8.25357 177.20943 45253 ft 387 kts 156°
2026-04-26 19:20 -8.30167 177.23404 45234 ft 388 kts 156°
2026-04-26 19:21 -8.34979 177.25874 45265 ft 387 kts 156°
2026-04-26 19:21 -8.39780 177.28344 45264 ft 387 kts 156°
2026-04-26 19:22 -8.44551 177.30805 45255 ft 388 kts 156°
2026-04-26 19:22 -8.49354 177.33290 45286 ft 387 kts 155°
2026-04-26 19:23 -8.54146 177.35775 45276 ft 387 kts 155°
2026-04-26 19:23 -8.58942 177.38269 45292 ft 387 kts 155°
2026-04-26 19:24 -8.63734 177.40767 45293 ft 387 kts 155°
2026-04-26 19:24 -8.70912 177.44519 45311 ft 387 kts 155°
2026-04-26 19:25 -8.74115 177.46198 45319 ft 387 kts 155°
2026-04-26 19:25 -8.80482 177.49544 45325 ft 387 kts 155°
2026-04-26 19:26 -8.85255 177.52059 45337 ft 387 kts 155°
2026-04-26 19:26 -8.89998 177.54564 45339 ft 387 kts 155°
2026-04-26 19:27 -8.94769 177.57089 45366 ft 386 kts 155°
2026-04-26 19:27 -8.98758 177.59205 45380 ft 386 kts 155°
2026-04-26 19:28 -9.03517 177.61734 45384 ft 386 kts 155°
2026-04-26 19:28 -9.08243 177.64252 45417 ft 385 kts 155°
2026-04-26 19:29 -9.12992 177.66789 45418 ft 385 kts 155°
2026-04-26 19:29 -9.17732 177.69326 45422 ft 385 kts 155°
2026-04-26 19:30 -9.22471 177.71870 45465 ft 384 kts 155°
2026-04-26 19:30 -9.26398 177.73984 45464 ft 384 kts 155°
2026-04-26 19:31 -9.31923 177.76965 45466 ft 384 kts 155°
2026-04-26 19:31 -9.36644 177.79519 45481 ft 384 kts 155°
2026-04-26 19:32 -9.41355 177.82076 45485 ft 384 kts 155°
2026-04-26 19:32 -9.46038 177.84624 45502 ft 384 kts 155°
2026-04-26 19:33 -9.50738 177.87189 45523 ft 383 kts 155°
2026-04-26 19:33 -9.55428 177.89756 45518 ft 383 kts 155°
2026-04-26 19:34 -9.60131 177.92338 45528 ft 383 kts 155°
2026-04-26 19:34 -9.64814 177.94916 45551 ft 383 kts 155°
2026-04-26 19:35 -9.69501 177.97504 45548 ft 383 kts 155°
2026-04-26 19:35 -9.74183 178.00096 45553 ft 383 kts 155°
2026-04-26 19:36 -9.78066 178.02252 45561 ft 383 kts 155°
2026-04-26 19:36 -9.83532 178.05296 45562 ft 383 kts 155°
2026-04-26 19:37 -9.88204 178.07905 45576 ft 383 kts 155°
2026-04-26 19:37 -9.92866 178.10516 45575 ft 383 kts 155°
2026-04-26 19:38 -9.97533 178.13138 45585 ft 383 kts 155°
2026-04-26 19:38 -10.02161 178.15745 45600 ft 383 kts 155°
2026-04-26 19:39 -10.06816 178.18375 45593 ft 383 kts 155°
2026-04-26 19:39 -10.11473 178.21014 45627 ft 382 kts 155°
2026-04-26 19:40 -10.16116 178.23652 45604 ft 383 kts 155°
2026-04-26 19:40 -10.20726 178.26278 45605 ft 383 kts 154°
2026-04-26 19:41 -10.25411 178.28955 45642 ft 382 kts 154°
2026-04-26 19:41 -10.29273 178.31168 45624 ft 383 kts 154°
2026-04-26 19:42 -10.34664 178.34266 45635 ft 383 kts 154°
2026-04-26 19:42 -10.39323 178.36951 45636 ft 383 kts 154°
2026-04-26 19:43 -10.43953 178.39628 45645 ft 383 kts 154°
2026-04-26 19:43 -10.48549 178.42292 45646 ft 383 kts 154°
2026-04-26 19:44 -10.53183 178.44987 45661 ft 383 kts 154°
2026-04-26 19:44 -10.57807 178.47683 45655 ft 383 kts 154°
2026-04-26 19:45 -10.62425 178.50383 45667 ft 383 kts 154°
2026-04-26 19:45 -10.67010 178.53072 45677 ft 383 kts 154°
2026-04-26 19:46 -10.71621 178.55785 45683 ft 383 kts 154°
2026-04-26 19:46 -10.76228 178.58503 45684 ft 383 kts 154°
2026-04-26 19:47 -10.80057 178.60767 45700 ft 382 kts 154°
2026-04-26 19:47 -10.85434 178.63957 45705 ft 382 kts 154°
2026-04-26 19:48 -10.90029 178.66691 45709 ft 382 kts 154°
2026-04-26 19:48 -10.94619 178.69430 45728 ft 382 kts 154°
2026-04-26 19:49 -10.99213 178.72178 45716 ft 383 kts 154°
2026-04-26 19:49 -11.03776 178.74917 45736 ft 382 kts 154°
2026-04-26 19:50 -11.08385 178.77690 45723 ft 383 kts 154°
2026-04-26 19:50 -11.12970 178.80457 45717 ft 383 kts 153°
2026-04-26 19:51 -11.17528 178.83214 45739 ft 383 kts 153°
2026-04-26 19:51 -11.22108 178.85993 45729 ft 383 kts 153°
2026-04-26 19:52 -11.26691 178.88782 45736 ft 383 kts 153°
2026-04-26 19:52 -11.31266 178.91574 45754 ft 383 kts 153°
2026-04-26 19:53 -11.35846 178.94376 45747 ft 384 kts 153°
2026-04-26 19:53 -11.40422 178.97184 45753 ft 384 kts 153°
2026-04-26 19:54 -11.44993 178.99995 45762 ft 384 kts 153°
2026-04-26 19:54 -11.49571 179.02819 45751 ft 384 kts 153°
2026-04-26 19:55 -11.54147 179.05647 45770 ft 384 kts 153°
2026-04-26 19:55 -11.58686 179.08460 45778 ft 384 kts 153°
2026-04-26 19:56 -11.63251 179.11296 45778 ft 384 kts 152°
2026-04-26 19:56 -11.67820 179.14140 45793 ft 384 kts 152°
2026-04-26 19:57 -11.72382 179.16987 45795 ft 384 kts 152°
2026-04-26 19:57 -11.76937 179.19837 45815 ft 384 kts 152°
2026-04-26 19:58 -11.81495 179.22696 45811 ft 384 kts 152°
2026-04-26 19:58 -11.86028 179.25547 45814 ft 384 kts 152°
2026-04-26 19:59 -11.90577 179.28416 45823 ft 384 kts 152°
2026-04-26 19:59 -11.95127 179.31292 45824 ft 385 kts 152°
2026-04-26 20:00 -11.99674 179.34174 45843 ft 384 kts 152°
2026-04-26 20:00 -12.04218 179.37062 45847 ft 385 kts 152°
2026-04-26 20:01 -12.08770 179.39964 45853 ft 385 kts 152°
2026-04-26 20:01 -12.13308 179.42863 45864 ft 384 kts 151°
2026-04-26 20:02 -12.17845 179.45769 45873 ft 385 kts 151°
2026-04-26 20:02 -12.20850 179.47697 45874 ft 385 kts 151°
2026-04-26 20:03 -12.26890 179.51583 45887 ft 385 kts 151°
2026-04-26 20:03 -12.31414 179.54502 45897 ft 385 kts 151°
2026-04-26 20:04 -12.35947 179.57436 45892 ft 385 kts 151°
2026-04-26 20:04 -12.40466 179.60368 45901 ft 385 kts 151°
2026-04-26 20:05 -12.44236 179.62819 45903 ft 385 kts 151°
2026-04-26 20:05 -12.49497 179.66251 45920 ft 385 kts 151°
2026-04-26 20:06 -12.53282 179.68726 45923 ft 385 kts 151°
2026-04-26 20:06 -12.57773 179.71671 45933 ft 385 kts 150°
2026-04-26 20:07 -12.62294 179.74643 45940 ft 385 kts 150°
2026-04-26 20:07 -12.66803 179.77617 45961 ft 385 kts 150°
2026-04-26 20:08 -12.71308 179.80596 45957 ft 385 kts 150°
2026-04-26 20:08 -12.75778 179.83558 45964 ft 385 kts 150°
2026-04-26 20:09 -12.80279 179.86551 45977 ft 385 kts 150°
2026-04-26 20:09 -12.84778 179.89551 45983 ft 385 kts 150°
2026-04-26 20:10 -12.89265 179.92551 45996 ft 385 kts 150°
2026-04-26 20:10 -12.93750 179.95558 46004 ft 385 kts 150°
2026-04-26 20:11 -12.98238 179.98576 46024 ft 385 kts 150°
2026-04-26 20:12 -13.04947 -179.96898 46030 ft 385 kts 150°
2026-04-26 20:12 -13.09390 -179.93890 46047 ft 385 kts 150°
2026-04-26 20:13 -13.13861 -179.90855 46038 ft 385 kts 150°
2026-04-26 20:13 -13.18327 -179.87817 46062 ft 385 kts 150°
2026-04-26 20:14 -13.22788 -179.84772 46080 ft 385 kts 150°
2026-04-26 20:14 -13.27251 -179.81720 46066 ft 385 kts 150°
2026-04-26 20:15 -13.31679 -179.78683 46106 ft 384 kts 150°
2026-04-26 20:15 -13.36122 -179.75628 46098 ft 385 kts 150°
2026-04-26 20:16 -13.40570 -179.72561 46104 ft 385 kts 150°
2026-04-26 20:16 -13.45007 -179.69493 46132 ft 384 kts 150°
2026-04-26 20:17 -13.49447 -179.66415 46111 ft 385 kts 150°
2026-04-26 20:17 -13.53880 -179.63333 46142 ft 384 kts 150°
2026-04-26 20:18 -13.58304 -179.60248 46145 ft 384 kts 149°
2026-04-26 20:18 -13.62735 -179.57150 46149 ft 384 kts 149°
2026-04-26 20:19 -13.67153 -179.54052 46171 ft 384 kts 149°
2026-04-26 20:19 -13.71542 -179.50968 46154 ft 385 kts 149°
2026-04-26 20:20 -13.75960 -179.47854 46185 ft 384 kts 149°
2026-04-26 20:20 -13.80364 -179.44743 46194 ft 384 kts 149°
2026-04-26 20:21 -13.84774 -179.41617 46176 ft 385 kts 149°
2026-04-26 20:21 -13.89176 -179.38489 46217 ft 384 kts 149°
2026-04-26 20:22 -13.93571 -179.35356 46201 ft 384 kts 149°
2026-04-26 20:22 -13.97972 -179.32211 46215 ft 384 kts 149°
2026-04-26 20:23 -14.02357 -179.29067 46231 ft 384 kts 149°
2026-04-26 20:23 -14.06746 -179.25912 46221 ft 384 kts 149°
2026-04-26 20:24 -14.11127 -179.22753 46257 ft 384 kts 149°
2026-04-26 20:24 -14.15477 -179.19608 46255 ft 384 kts 149°
2026-04-26 20:25 -14.19848 -179.16439 46260 ft 384 kts 149°
2026-04-26 20:25 -14.24224 -179.13258 46272 ft 384 kts 149°
2026-04-26 20:26 -14.28599 -179.10068 46266 ft 385 kts 149°
2026-04-26 20:26 -14.32965 -179.06875 46276 ft 385 kts 149°
2026-04-26 20:27 -14.37294 -179.03700 46292 ft 384 kts 149°
2026-04-26 20:27 -14.41681 -179.00473 46280 ft 385 kts 149°
2026-04-26 20:28 -14.46008 -178.97281 46299 ft 385 kts 149°
2026-04-26 20:28 -14.50363 -178.94058 46302 ft 385 kts 148°
2026-04-26 20:29 -14.54717 -178.90827 46309 ft 385 kts 148°
2026-04-26 20:29 -14.59056 -178.87598 46317 ft 385 kts 148°
2026-04-26 20:30 -14.63404 -178.84353 46303 ft 385 kts 148°
2026-04-26 20:30 -14.67744 -178.81104 46329 ft 385 kts 148°
2026-04-26 20:31 -14.72079 -178.77849 46324 ft 385 kts 148°
2026-04-26 20:31 -14.76419 -178.74582 46326 ft 386 kts 148°
2026-04-26 20:32 -14.80725 -178.71330 46348 ft 385 kts 148°
2026-04-26 20:32 -14.85058 -178.68047 46331 ft 386 kts 148°
2026-04-26 20:33 -14.89388 -178.64758 46340 ft 386 kts 148°
2026-04-26 20:33 -14.93709 -178.61466 46364 ft 385 kts 148°
2026-04-26 20:34 -14.98029 -178.58165 46349 ft 386 kts 148°
2026-04-26 20:34 -15.02350 -178.54855 46378 ft 386 kts 148°
2026-04-26 20:35 -15.06658 -178.51545 46395 ft 385 kts 148°
2026-04-26 20:35 -15.10939 -178.48246 46379 ft 386 kts 148°
2026-04-26 20:36 -15.15247 -178.44917 46415 ft 385 kts 148°
2026-04-26 20:36 -15.19540 -178.41589 46408 ft 386 kts 148°
2026-04-26 20:37 -15.23838 -178.38248 46414 ft 386 kts 148°
2026-04-26 20:37 -15.28119 -178.34908 46447 ft 385 kts 148°
2026-04-26 20:38 -15.32406 -178.31553 46432 ft 386 kts 148°
2026-04-26 20:38 -15.36662 -178.28213 46457 ft 385 kts 147°
2026-04-26 20:39 -15.40924 -178.24855 46466 ft 385 kts 147°
2026-04-26 20:39 -15.45190 -178.21485 46469 ft 385 kts 147°
2026-04-26 20:40 -15.49446 -178.18110 46489 ft 385 kts 147°
2026-04-26 20:40 -15.53704 -178.14722 46486 ft 385 kts 147°
2026-04-26 20:41 -15.57923 -178.11355 46499 ft 385 kts 147°
2026-04-26 20:41 -15.62168 -178.07955 46513 ft 385 kts 147°
2026-04-26 20:42 -15.66406 -178.04550 46502 ft 385 kts 147°
2026-04-26 20:42 -15.70644 -178.01134 46521 ft 385 kts 147°
2026-04-26 20:43 -15.74868 -177.97717 46526 ft 385 kts 147°
2026-04-26 20:43 -15.79069 -177.94309 46526 ft 385 kts 147°
2026-04-26 20:44 -15.83290 -177.90873 46550 ft 384 kts 147°
2026-04-26 20:44 -15.87499 -177.87434 46557 ft 385 kts 147°
2026-04-26 20:45 -15.91702 -177.83988 46571 ft 384 kts 147°
2026-04-26 20:45 -15.95875 -177.80555 46587 ft 384 kts 147°
2026-04-26 20:46 -16.00057 -177.77103 46592 ft 384 kts 147°
2026-04-26 20:46 -16.04239 -177.73640 46610 ft 384 kts 147°
2026-04-26 20:47 -16.08403 -177.70179 46622 ft 383 kts 147°
2026-04-26 20:47 -16.11862 -177.67295 46633 ft 383 kts 147°
2026-04-26 20:48 -16.16020 -177.63816 46642 ft 383 kts 147°
2026-04-26 20:48 -16.20167 -177.60335 46654 ft 383 kts 147°
2026-04-26 20:49 -16.24308 -177.56846 46661 ft 382 kts 147°
2026-04-26 20:49 -16.28442 -177.53351 46661 ft 382 kts 147°
2026-04-26 20:50 -16.32569 -177.49849 46673 ft 382 kts 147°
2026-04-26 20:50 -16.36661 -177.46364 46687 ft 382 kts 147°
2026-04-26 20:51 -16.40770 -177.42850 46693 ft 382 kts 147°
2026-04-26 20:51 -16.44872 -177.39329 46709 ft 381 kts 147°
2026-04-26 20:52 -16.48968 -177.35800 46707 ft 382 kts 147°
2026-04-26 20:52 -16.53050 -177.32270 46722 ft 381 kts 147°
2026-04-26 20:53 -16.57129 -177.28730 46724 ft 381 kts 147°
2026-04-26 20:53 -16.61199 -177.25185 46727 ft 381 kts 147°
2026-04-26 20:54 -16.65279 -177.21619 46738 ft 381 kts 147°
2026-04-26 20:54 -16.69313 -177.18080 46733 ft 381 kts 147°
2026-04-26 20:55 -16.73371 -177.14506 46741 ft 381 kts 147°
2026-04-26 20:55 -16.77427 -177.10923 46737 ft 382 kts 146°
2026-04-26 20:56 -16.81485 -177.07325 46765 ft 381 kts 146°
2026-04-26 20:56 -16.85525 -177.03727 46755 ft 382 kts 146°
2026-04-26 20:57 -16.89542 -177.00139 46749 ft 382 kts 146°
2026-04-26 20:57 -16.93579 -176.96519 46755 ft 382 kts 146°
2026-04-26 20:58 -16.97612 -176.92890 46748 ft 383 kts 146°
2026-04-26 20:58 -17.01645 -176.89249 46748 ft 383 kts 146°
2026-04-26 20:59 -17.05672 -176.85598 46747 ft 383 kts 146°
2026-04-26 20:59 -17.09670 -176.81962 46749 ft 383 kts 146°
2026-04-26 21:00 -17.13694 -176.78290 46746 ft 384 kts 146°
2026-04-26 21:00 -17.17719 -176.74603 46746 ft 384 kts 146°
2026-04-26 21:01 -17.21731 -176.70916 46756 ft 384 kts 146°
2026-04-26 21:01 -17.25741 -176.67218 46748 ft 385 kts 146°
2026-04-26 21:02 -17.29755 -176.63503 46754 ft 385 kts 146°
2026-04-26 21:02 -17.33763 -176.59781 46764 ft 385 kts 145°
2026-04-26 21:03 -17.37769 -176.56047 46765 ft 385 kts 145°
2026-04-26 21:03 -17.41742 -176.52331 46789 ft 385 kts 145°
2026-04-26 21:04 -17.45737 -176.48580 46770 ft 386 kts 145°
2026-04-26 21:04 -17.49731 -176.44818 46795 ft 385 kts 145°
2026-04-26 21:05 -17.53709 -176.41056 46793 ft 385 kts 145°
2026-04-26 21:05 -17.57691 -176.37280 46800 ft 386 kts 145°
2026-04-26 21:06 -17.61663 -176.33499 46820 ft 385 kts 144°
2026-04-26 21:06 -17.65605 -176.29734 46810 ft 386 kts 144°
2026-04-26 21:07 -17.69572 -176.25931 46830 ft 386 kts 144°
2026-04-26 21:07 -17.73537 -176.22115 46856 ft 385 kts 144°
2026-04-26 21:08 -17.77483 -176.18303 46855 ft 386 kts 144°
2026-04-26 21:08 -17.81432 -176.14474 46869 ft 386 kts 144°
2026-04-26 21:09 -17.85364 -176.10645 46887 ft 386 kts 144°
2026-04-26 21:09 -17.89292 -176.06806 46876 ft 386 kts 144°
2026-04-26 21:10 -17.93219 -176.02955 46908 ft 386 kts 144°
2026-04-26 21:10 -17.97135 -175.99097 46915 ft 386 kts 144°
2026-04-26 21:11 -18.01048 -175.95228 46924 ft 386 kts 144°
2026-04-26 21:11 -18.04923 -175.91381 46942 ft 385 kts 144°
2026-04-26 21:12 -18.08827 -175.87491 46924 ft 386 kts 144°
2026-04-26 21:12 -18.12724 -175.83592 46957 ft 386 kts 144°
2026-04-26 21:13 -18.16604 -175.79694 46970 ft 386 kts 143°
2026-04-26 21:13 -18.20488 -175.75780 46946 ft 387 kts 143°
2026-04-26 21:14 -18.24359 -175.71863 46996 ft 386 kts 143°
2026-04-26 21:14 -18.28231 -175.67931 46977 ft 387 kts 143°
2026-04-26 21:15 -18.32073 -175.64017 46990 ft 386 kts 143°
2026-04-26 21:15 -18.35933 -175.60070 46999 ft 386 kts 143°
2026-04-26 21:16 -18.39792 -175.56110 46993 ft 387 kts 143°
2026-04-26 21:16 -18.43638 -175.52149 47013 ft 387 kts 143°
2026-04-26 21:17 -18.47481 -175.48177 47009 ft 387 kts 143°
2026-04-26 21:17 -18.51325 -175.44189 47013 ft 387 kts 143°
2026-04-26 21:18 -18.55155 -175.40202 47028 ft 387 kts 143°
2026-04-26 21:18 -18.58990 -175.36196 47021 ft 388 kts 142°
2026-04-26 21:19 -18.62793 -175.32209 47036 ft 388 kts 142°
2026-04-26 21:19 -18.66618 -175.28184 47039 ft 388 kts 142°
2026-04-26 21:20 -18.70436 -175.24151 47045 ft 388 kts 142°
2026-04-26 21:20 -18.74245 -175.20112 47057 ft 388 kts 142°
2026-04-26 21:21 -18.78062 -175.16049 47068 ft 389 kts 142°
2026-04-26 21:21 -18.81861 -175.11991 47066 ft 389 kts 142°
2026-04-26 21:22 -18.85658 -175.07921 47068 ft 389 kts 142°
2026-04-26 21:22 -18.89447 -175.03844 47099 ft 389 kts 142°
2026-04-26 21:23 -18.95102 -174.97729 47097 ft 389 kts 142°
2026-04-26 21:23 -18.98880 -174.93624 47114 ft 389 kts 142°
2026-04-26 21:24 -19.02647 -174.89515 47121 ft 390 kts 142°
2026-04-26 21:24 -19.06415 -174.85389 47123 ft 390 kts 142°
2026-04-26 21:25 -19.10180 -174.81251 47139 ft 390 kts 141°
2026-04-26 21:25 -19.13937 -174.77106 47130 ft 390 kts 141°
2026-04-26 21:26 -19.17058 -174.73652 47136 ft 390 kts 141°
2026-04-26 21:26 -19.20812 -174.69483 47160 ft 390 kts 141°
2026-04-26 21:27 -19.24555 -174.65313 47147 ft 391 kts 141°
2026-04-26 21:27 -19.28301 -174.61127 47161 ft 391 kts 141°
2026-04-26 21:28 -19.32012 -174.56965 47167 ft 391 kts 141°
2026-04-26 21:28 -19.35743 -174.52766 47168 ft 391 kts 141°
2026-04-26 21:29 -19.39474 -174.48552 47179 ft 391 kts 141°
2026-04-26 21:29 -19.43196 -174.44335 47179 ft 392 kts 141°
2026-04-26 21:30 -19.46922 -174.40099 47202 ft 392 kts 141°
2026-04-26 21:30 -19.50635 -174.35862 47202 ft 393 kts 141°
2026-04-26 21:31 -19.54332 -174.31631 47219 ft 393 kts 141°
2026-04-26 21:31 -19.58039 -174.27373 47240 ft 393 kts 141°
2026-04-26 21:32 -19.61743 -174.23103 47241 ft 393 kts 140°
2026-04-26 21:32 -19.65441 -174.18827 47254 ft 393 kts 140°
2026-04-26 21:33 -19.69136 -174.14540 47249 ft 394 kts 140°
2026-04-26 21:33 -19.72834 -174.10235 47258 ft 394 kts 140°
2026-04-26 21:34 -19.76525 -174.05921 47266 ft 394 kts 140°
2026-04-26 21:34 -19.80210 -174.01600 47256 ft 395 kts 140°
2026-04-26 21:35 -19.83892 -173.97265 47264 ft 395 kts 140°
2026-04-26 21:35 -19.87574 -173.92916 47259 ft 395 kts 140°
2026-04-26 21:36 -19.91219 -173.88596 47264 ft 396 kts 140°
2026-04-26 21:36 -19.94896 -173.84223 47275 ft 396 kts 140°
2026-04-26 21:37 -19.98562 -173.79850 47274 ft 396 kts 140°
2026-04-26 21:37 -20.02223 -173.75468 47280 ft 396 kts 140°
2026-04-26 21:38 -20.05889 -173.71066 47278 ft 397 kts 140°
2026-04-26 21:38 -20.09552 -173.66654 47287 ft 397 kts 140°
2026-04-26 21:39 -20.13201 -173.62244 47293 ft 397 kts 140°
2026-04-26 21:39 -20.16830 -173.57842 47304 ft 397 kts 139°
2026-04-26 21:40 -20.20475 -173.53409 47306 ft 398 kts 139°
2026-04-26 21:40 -20.24122 -173.48957 47328 ft 398 kts 139°
2026-04-26 21:41 -20.27762 -173.44499 47321 ft 398 kts 139°
2026-04-26 21:41 -20.31393 -173.40038 47329 ft 399 kts 139°
2026-04-26 21:42 -20.35019 -173.35568 47329 ft 399 kts 139°
2026-04-26 21:42 -20.38627 -173.31106 47327 ft 399 kts 139°
2026-04-26 21:43 -20.42246 -173.26615 47344 ft 399 kts 139°
2026-04-26 21:43 -20.45866 -173.22106 47349 ft 400 kts 139°
2026-04-26 21:44 -20.49481 -173.17591 47350 ft 400 kts 139°
2026-04-26 21:44 -20.53066 -173.13097 47361 ft 400 kts 139°
2026-04-26 21:45 -20.56671 -173.08563 47353 ft 401 kts 139°
2026-04-26 21:45 -20.60274 -173.04018 47370 ft 401 kts 139°
2026-04-26 21:46 -20.63872 -172.99466 47369 ft 401 kts 139°
2026-04-26 21:46 -20.67471 -172.94898 47382 ft 402 kts 139°
2026-04-26 21:47 -20.71063 -172.90327 47406 ft 401 kts 139°
2026-04-26 21:47 -20.74655 -172.85740 47398 ft 402 kts 139°
2026-04-26 21:48 -20.78241 -172.81148 47403 ft 402 kts 139°
2026-04-26 21:48 -20.81820 -172.76549 47422 ft 402 kts 139°
2026-04-26 21:49 -20.85380 -172.71962 47413 ft 403 kts 139°
2026-04-26 21:49 -20.88955 -172.67341 47424 ft 403 kts 138°
2026-04-26 21:50 -20.91929 -172.63487 47427 ft 403 kts 138°
2026-04-26 21:50 -20.96109 -172.58052 47436 ft 404 kts 138°
2026-04-26 21:51 -20.99670 -172.53404 47441 ft 404 kts 138°
2026-04-26 21:51 -21.03212 -172.48767 47442 ft 404 kts 138°
2026-04-26 21:52 -21.06768 -172.44096 47446 ft 405 kts 138°
2026-04-26 21:52 -21.10328 -172.39405 47449 ft 405 kts 138°
2026-04-26 21:53 -21.13877 -172.34713 47458 ft 405 kts 138°
2026-04-26 21:53 -21.17432 -172.29998 47459 ft 406 kts 138°
2026-04-26 21:54 -21.20977 -172.25283 47459 ft 406 kts 138°
2026-04-26 21:54 -21.24502 -172.20580 47468 ft 407 kts 138°
2026-04-26 21:55 -21.28038 -172.15847 47471 ft 407 kts 138°
2026-04-26 21:55 -21.31573 -172.11099 47473 ft 407 kts 138°
2026-04-26 21:56 -21.35107 -172.06339 47479 ft 407 kts 138°
2026-04-26 21:56 -21.38635 -172.01569 47481 ft 408 kts 138°
2026-04-26 21:57 -21.42160 -171.96789 47487 ft 408 kts 138°
2026-04-26 21:57 -21.45657 -171.92031 47512 ft 408 kts 138°
2026-04-26 21:58 -21.49172 -171.87233 47515 ft 408 kts 138°
2026-04-26 21:58 -21.52681 -171.82428 47536 ft 408 kts 138°
2026-04-26 21:59 -21.56160 -171.77646 47543 ft 408 kts 138°
2026-04-26 21:59 -21.59655 -171.72829 47557 ft 408 kts 138°
2026-04-26 22:00 -21.63135 -171.68013 47575 ft 408 kts 137°
2026-04-26 22:00 -21.66623 -171.63172 47562 ft 409 kts 137°
2026-04-26 22:01 -21.70097 -171.58335 47600 ft 408 kts 137°
2026-04-26 22:01 -21.73562 -171.53492 47601 ft 409 kts 137°
2026-04-26 22:02 -21.76444 -171.49454 47598 ft 409 kts 137°
2026-04-26 22:02 -21.80490 -171.43766 47611 ft 409 kts 137°
2026-04-26 22:03 -21.83917 -171.38932 47609 ft 409 kts 137°
2026-04-26 22:03 -21.87368 -171.34050 47616 ft 409 kts 137°
2026-04-26 22:04 -21.90810 -171.29165 47621 ft 410 kts 137°
2026-04-26 22:04 -21.94256 -171.24265 47617 ft 410 kts 137°
2026-04-26 22:05 -21.97697 -171.19363 47631 ft 410 kts 137°
2026-04-26 22:05 -22.01135 -171.14456 47643 ft 410 kts 137°
2026-04-26 22:06 -22.03998 -171.10364 47638 ft 411 kts 137°
2026-04-26 22:06 -22.07441 -171.05436 47649 ft 411 kts 137°
2026-04-26 22:07 -22.10873 -171.00513 47648 ft 411 kts 136°
2026-04-26 22:07 -22.14309 -170.95576 47651 ft 412 kts 136°
2026-04-26 22:08 -22.17745 -170.90631 47665 ft 411 kts 136°
2026-04-26 22:08 -22.21178 -170.85678 47675 ft 412 kts 136°
2026-04-26 22:09 -22.24585 -170.80754 47678 ft 412 kts 136°
2026-04-26 22:09 -22.28008 -170.75797 47698 ft 412 kts 136°
2026-04-26 22:10 -22.31433 -170.70827 47692 ft 412 kts 136°
2026-04-26 22:10 -22.34859 -170.65850 47691 ft 413 kts 136°
2026-04-26 22:11 -22.38283 -170.60865 47702 ft 413 kts 136°
2026-04-26 22:11 -22.41683 -170.55905 47706 ft 413 kts 136°
2026-04-26 22:12 -22.45098 -170.50914 47710 ft 413 kts 136°
2026-04-26 22:12 -22.48515 -170.45910 47709 ft 413 kts 136°
2026-04-26 22:13 -22.51931 -170.40900 47715 ft 414 kts 136°
2026-04-26 22:13 -22.55347 -170.35879 47713 ft 414 kts 136°
2026-04-26 22:14 -22.58761 -170.30853 47718 ft 414 kts 135°
2026-04-26 22:14 -22.62155 -170.25845 47735 ft 414 kts 135°
2026-04-26 22:15 -22.65575 -170.20787 47748 ft 414 kts 135°
2026-04-26 22:15 -22.68958 -170.15773 47754 ft 414 kts 135°
2026-04-26 22:16 -22.72353 -170.10731 47782 ft 414 kts 135°
2026-04-26 22:16 -22.75726 -170.05709 47788 ft 414 kts 135°
2026-04-26 22:17 -22.79117 -170.00650 47800 ft 414 kts 135°
2026-04-26 22:17 -22.82487 -169.95609 47809 ft 413 kts 135°
2026-04-26 22:18 -22.85864 -169.90549 47805 ft 414 kts 135°
2026-04-26 22:18 -22.89235 -169.85487 47828 ft 413 kts 135°
2026-04-26 22:19 -22.92573 -169.80461 47822 ft 413 kts 135°
2026-04-26 22:19 -22.95935 -169.75390 47836 ft 413 kts 135°
2026-04-26 22:20 -22.99289 -169.70319 47849 ft 413 kts 135°
2026-04-26 22:20 -23.02635 -169.65248 47851 ft 413 kts 135°
2026-04-26 22:21 -23.05975 -169.60175 47863 ft 413 kts 135°
2026-04-26 22:21 -23.09309 -169.55097 47883 ft 412 kts 135°
2026-04-26 22:22 -23.12634 -169.50021 47883 ft 412 kts 135°
2026-04-26 22:22 -23.15954 -169.44940 47894 ft 412 kts 135°
2026-04-26 22:23 -23.19268 -169.39858 47909 ft 412 kts 135°
2026-04-26 22:23 -23.22582 -169.34763 47925 ft 412 kts 135°
2026-04-26 22:24 -23.25866 -169.29704 47935 ft 411 kts 134°
2026-04-26 22:24 -23.29169 -169.24603 47926 ft 412 kts 134°
2026-04-26 22:25 -23.32467 -169.19502 47932 ft 412 kts 134°
2026-04-26 22:25 -23.35764 -169.14388 47942 ft 412 kts 134°
2026-04-26 22:26 -23.39056 -169.09274 47930 ft 412 kts 134°
2026-04-26 22:26 -23.42347 -169.04151 47950 ft 412 kts 134°
2026-04-26 22:27 -23.45612 -168.99059 47940 ft 413 kts 134°
2026-04-26 22:27 -23.48900 -168.93921 47947 ft 413 kts 134°
2026-04-26 22:28 -23.52184 -168.88778 47961 ft 412 kts 134°
2026-04-26 22:28 -23.55444 -168.83664 47952 ft 413 kts 134°
2026-04-26 22:29 -23.58715 -168.78523 47974 ft 412 kts 134°
2026-04-26 22:29 -23.61981 -168.73381 47975 ft 413 kts 134°
2026-04-26 22:30 -23.65248 -168.68230 48023 ft 413 kts 136°
2026-04-26 22:30 -23.68493 -168.63088 48156 ft 409 kts 136°
2026-04-26 22:31 -23.71715 -168.57959 48079 ft 411 kts 136°
2026-04-26 22:31 -23.74962 -168.52791 48081 ft 411 kts 136°
2026-04-26 22:32 -23.78176 -168.47647 48159 ft 409 kts 136°
2026-04-26 22:32 -23.81398 -168.42482 48071 ft 412 kts 136°
2026-04-26 22:33 -23.86211 -168.34734 48166 ft 410 kts 136°
2026-04-26 22:34 -23.89419 -168.29551 48094 ft 412 kts 136°
2026-04-26 22:34 -23.92605 -168.24389 48145 ft 411 kts 135°
2026-04-26 22:35 -23.95796 -168.19197 48135 ft 412 kts 135°
2026-04-26 22:35 -23.98993 -168.13986 48112 ft 413 kts 135°
2026-04-26 22:36 -24.02177 -168.08776 48163 ft 411 kts 135°
2026-04-26 22:36 -24.05356 -168.03556 48124 ft 413 kts 135°
2026-04-26 22:37 -24.08539 -167.98317 48152 ft 412 kts 135°
2026-04-26 22:37 -24.11700 -167.93089 48171 ft 412 kts 135°
2026-04-26 22:38 -24.14869 -167.87834 48145 ft 413 kts 135°
2026-04-26 22:38 -24.18021 -167.82587 48198 ft 411 kts 135°
2026-04-26 22:39 -24.21160 -167.77339 48166 ft 413 kts 135°
2026-04-26 22:39 -24.24305 -167.72067 48179 ft 412 kts 135°
2026-04-26 22:40 -24.27427 -167.66809 48215 ft 412 kts 134°
2026-04-26 22:40 -24.30553 -167.61527 48184 ft 413 kts 134°
2026-04-26 22:41 -24.33667 -167.56247 48223 ft 412 kts 134°
2026-04-26 22:41 -24.36749 -167.50998 48219 ft 412 kts 134°
2026-04-26 22:42 -24.39855 -167.45696 48211 ft 413 kts 134°
2026-04-26 22:42 -24.42944 -167.40399 48247 ft 412 kts 134°
2026-04-26 22:43 -24.46034 -167.35085 48219 ft 413 kts 134°
2026-04-26 22:43 -24.49116 -167.29767 48243 ft 412 kts 134°
2026-04-26 22:44 -24.52190 -167.24442 48255 ft 412 kts 134°
2026-04-26 22:44 -24.55259 -167.19110 48244 ft 413 kts 134°
2026-04-26 22:45 -24.58319 -167.13774 48274 ft 412 kts 134°
2026-04-26 22:45 -24.61351 -167.08468 48268 ft 412 kts 134°
2026-04-26 22:46 -24.63900 -167.03995 48279 ft 412 kts 133°
2026-04-26 22:46 -24.67431 -166.97774 48304 ft 412 kts 133°
2026-04-26 22:47 -24.69953 -166.93318 48294 ft 412 kts 133°
2026-04-26 22:47 -24.72975 -166.87962 48317 ft 412 kts 133°
2026-04-26 22:48 -24.75989 -166.82601 48314 ft 412 kts 133°
2026-04-26 22:48 -24.79001 -166.77230 48316 ft 412 kts 133°
2026-04-26 22:49 -24.82007 -166.71848 48341 ft 412 kts 133°
2026-04-26 22:49 -24.85004 -166.66463 48329 ft 412 kts 133°
2026-04-26 22:50 -24.87998 -166.61070 48344 ft 412 kts 133°
2026-04-26 22:50 -24.90978 -166.55682 48350 ft 412 kts 133°
2026-04-26 22:51 -24.93955 -166.50286 48340 ft 412 kts 133°
2026-04-26 22:51 -24.96925 -166.44883 48358 ft 412 kts 133°
2026-04-26 22:52 -24.99889 -166.39476 48356 ft 412 kts 133°
2026-04-26 22:52 -25.02830 -166.34094 48357 ft 412 kts 133°
2026-04-26 22:53 -25.05781 -166.28674 48374 ft 412 kts 133°
2026-04-26 22:53 -25.08732 -166.23238 48374 ft 412 kts 133°
2026-04-26 22:54 -25.11675 -166.17797 48386 ft 413 kts 132°
2026-04-26 22:54 -25.14611 -166.12352 48388 ft 413 kts 132°
2026-04-26 22:55 -25.17544 -166.06895 48389 ft 413 kts 132°
2026-04-26 22:55 -25.20472 -166.01433 48391 ft 413 kts 132°
2026-04-26 22:56 -25.23373 -165.96001 48399 ft 413 kts 132°
2026-04-26 22:56 -25.26291 -165.90520 48404 ft 413 kts 132°
2026-04-26 22:57 -25.29205 -165.85031 48405 ft 414 kts 132°
2026-04-26 22:57 -25.32105 -165.79548 48417 ft 414 kts 132°
2026-04-26 22:58 -25.35002 -165.74054 48410 ft 414 kts 132°
2026-04-26 22:58 -25.37896 -165.68548 48416 ft 414 kts 131°
2026-04-26 22:59 -25.40789 -165.63025 48423 ft 414 kts 131°
2026-04-26 22:59 -25.43675 -165.57499 48419 ft 415 kts 131°
2026-04-26 23:00 -25.46554 -165.51970 48434 ft 414 kts 131°
2026-04-26 23:00 -25.49408 -165.46469 48434 ft 415 kts 131°
2026-04-26 23:01 -25.52281 -165.40918 48432 ft 415 kts 131°
2026-04-26 23:01 -25.55146 -165.35364 48447 ft 415 kts 131°
2026-04-26 23:02 -25.58006 -165.29800 48445 ft 416 kts 131°
2026-04-26 23:02 -25.60862 -165.24227 48454 ft 416 kts 131°
2026-04-26 23:03 -25.63710 -165.18653 48461 ft 416 kts 131°
2026-04-26 23:03 -25.66556 -165.13063 48462 ft 416 kts 131°
2026-04-26 23:04 -25.69400 -165.07462 48473 ft 416 kts 131°
2026-04-26 23:04 -25.72232 -165.01866 48481 ft 416 kts 131°
2026-04-26 23:05 -25.75042 -164.96294 48491 ft 416 kts 131°
2026-04-26 23:05 -25.77861 -164.90686 48505 ft 416 kts 131°
2026-04-26 23:06 -25.80680 -164.85062 48511 ft 416 kts 130°
2026-04-26 23:06 -25.83484 -164.79449 48517 ft 416 kts 130°
2026-04-26 23:07 -25.86285 -164.73822 48538 ft 416 kts 130°
2026-04-26 23:07 -25.89062 -164.68227 48537 ft 416 kts 130°
2026-04-26 23:08 -25.91855 -164.62582 48551 ft 416 kts 130°
2026-04-26 23:08 -25.94638 -164.56938 48551 ft 416 kts 130°
2026-04-26 23:09 -25.97419 -164.51284 48548 ft 417 kts 130°
2026-04-26 23:09 -26.00194 -164.45623 48566 ft 417 kts 130°
2026-04-26 23:10 -26.02950 -164.39984 48561 ft 417 kts 130°
2026-04-26 23:10 -26.05734 -164.34273 48546 ft 417 kts 130°
2026-04-26 23:11 -26.08494 -164.28593 48563 ft 417 kts 130°
2026-04-26 23:11 -26.11251 -164.22904 48556 ft 418 kts 129°
2026-04-26 23:11 -26.12576 -164.19990 48194 ft 433 kts 124°
2026-04-26 23:12 -26.13265 -164.17814 47133 ft 472 kts 108°